Location: Highridge
(54.0333°N, 114.1333°W)
Time: 21:14:15
(UTC+00:00)

BUGSAT 1 - Visible Passes

Search period start: 13 September 2024 00:00
Search period end: 23 September 2024 00:00
Orbit: 525 x 573 km, 98.1° (Epoch: 13 September)

Date Brightness Start Highest point End Pass type
(mag) Time Alt. Az. Time Alt. Az. Time Alt. Az.
13 Sep ? 02:57:13 10° SE 03:01:06 45° ENE 03:04:58 10° N visible
13 Sep ? 04:32:36 10° SSW 04:35:57 24° W 04:39:18 10° NW visible
14 Sep ? 02:52:46 10° SE 02:56:35 41° ENE 03:00:24 10° N visible
14 Sep ? 04:28:10 11° SSW 04:31:23 27° W 04:34:51 10° NW visible
15 Sep ? 02:48:18 10° SE 02:52:03 37° ENE 02:55:47 10° N visible
15 Sep ? 04:23:44 13° SSW 04:26:46 29° W 04:30:20 10° NW visible
16 Sep ? 02:43:49 10° SE 02:47:28 33° ENE 02:51:07 10° N visible
16 Sep ? 04:19:15 15° SSW 04:22:08 32° W 04:25:48 10° NNW visible
17 Sep ? 02:39:18 10° SE 02:42:52 31° ENE 02:46:25 10° N visible
17 Sep ? 04:14:44 16° SSW 04:17:28 36° W 04:21:12 10° NNW visible
18 Sep ? 02:34:46 10° ESE 02:38:13 28° ENE 02:41:39 10° N visible
18 Sep ? 04:10:11 18° SSW 04:12:46 39° W 04:16:34 10° NNW visible
19 Sep ? 02:30:12 10° ESE 02:33:33 25° ENE 02:36:52 10° N visible
19 Sep ? 04:05:37 20° SSW 04:08:01 44° W 04:11:53 10° NNW visible
20 Sep ? 02:25:38 10° ESE 02:28:51 23° ENE 02:32:02 10° N visible
20 Sep ? 04:01:00 23° SSW 04:03:15 49° W 04:07:09 10° NNW visible
21 Sep ? 02:21:02 10° ESE 02:24:06 21° ENE 02:27:09 10° N visible
21 Sep ? 03:56:20 25° S 03:58:27 55° WSW 04:02:24 10° NNW visible
22 Sep ? 02:16:26 10° ESE 02:19:20 20° ENE 02:22:13 10° NNE visible
22 Sep ? 03:51:39 28° S 03:53:37 62° WSW 03:57:35 10° NNW visible
